This is the latest recevied weather packets stored in our database for station/object KB1RMA-13. If no packets are shown the sender has not sent any weather packets the latest 10 day(s).
| Time | Temp. | Humidity | Pressure | Rain* | Wind** | Luminosity | Snow |
|---|---|---|---|---|---|---|---|
| 1777975816 | 12.78° C | 73% | 1009.3 hPa | 0 mm | - | 27 W/m² | - |
| 1777975513 | 12.78° C | 73% | 1009.4 hPa | 0 mm | - | 24 W/m² | - |
| 1777975210 | 12.22° C | 74% | 1009.3 hPa | 0 mm | - | 19 W/m² | - |
| 1777974906 | 12.22° C | 74% | 1009.3 hPa | 0 mm | - | 14 W/m² | - |
| 1777974601 | 12.78° C | 74% | 1009.4 hPa | 0 mm | - | 10 W/m² | - |
| 1777974299 | 12.22° C | 74% | 1009.2 hPa | 0 mm | - | 8 W/m² | - |
| 1777973995 | 12.22° C | 74% | 1009.3 hPa | 0 mm | - | 5 W/m² | - |
| 1777973692 | 12.22° C | 73% | 1009.4 hPa | 0 mm | - | 4 W/m² | - |
| 1777973389 | 12.22° C | 74% | 1009.4 hPa | 0 mm | - | 2 W/m² | - |
| 1777973086 | 12.22° C | 73% | 1009.2 hPa | 0 mm | - | 1 W/m² | - |
| 1777972784 | 12.22° C | 73% | 1009.1 hPa | 0 mm | - | 0 W/m² | - |
| 1777972481 | 12.22° C | 73% | 1009.2 hPa | 0 mm | - | 0 W/m² | - |
| 1777972179 | 12.22° C | 74% | 1009.1 hPa | 0 mm | - | 0 W/m² | - |
| 1777971877 | 12.22° C | 73% | 1009.3 hPa | 0 mm | - | 0 W/m² | - |
| 1777971574 | 12.22° C | 73% | 1009.2 hPa | 0 mm | - | 0 W/m² | - |
| 1777971272 | 12.22° C | 73% | 1009.3 hPa | 0 mm | - | 0 W/m² | - |
| 1777970970 | 12.22° C | 72% | 1009.2 hPa | 0 mm | - | 0 W/m² | - |
| 1777970668 | 12.22° C | 72% | 1009.2 hPa | 0 mm | - | 0 W/m² | - |
| 1777970366 | 12.78° C | 71% | 1009.4 hPa | 0 mm | - | 0 W/m² | - |
| 1777970063 | 12.78° C | 71% | 1009.3 hPa | 0 mm | - | 0 W/m² | - |
| 1777969759 | 12.78° C | 71% | 1009.4 hPa | 0 mm | - | 0 W/m² | - |
| 1777969455 | 12.78° C | 70% | 1009.4 hPa | 0 mm | - | 0 W/m² | - |
| 1777969152 | 12.78° C | 71% | 1009.5 hPa | 0 mm | - | 0 W/m² | - |
| 1777968849 | 12.78° C | 70% | 1009.5 hPa | 0 mm | - | 0 W/m² | - |
| 1777968545 | 12.78° C | 70% | 1009.6 hPa | 0 mm | - | 0 W/m² | - |
* Rain latest hour (hover to see other rain measurements)
** Current wind speed in m/s (hover to see current wind gust speed)